CONNECTA IOT-1

Last updated on Mon Sep 16 2024 00:02:03 GMT+0000 (Coordinated Universal Time)

1 60472U 24149E 24258.91272499 .00010083 00000+0 50283-3 0 9995 2 60472 97.4411 333.9905 0002443 28.2188 331.9178 15.17721536 4410
UTC large
Height (km)
Speed (km/s)
/
Latitude / Longitude
Inclination (degrees)
Orbital Period (minutes)
Azimuth
Elevation
Range (km)
Doppler Factor

Next 0 passes for location: London (51.5072 / 0.1276)

Sorry there are no passes over London.